Temp
23 23 23 22 22 21 21 20 21 21 19 20 19 19 19 19 19 18 19 19 19 19 19 19 18 18 19 19 19 19 19 19 19 19 19 18 18 17 18 18 18 18 19
23 22 22 22 21 20 20 19 19 19 20 18 18 18 18 18 18 18 18 18 18 18 18 18 18 18 17 17 18 18 18 17 17 17 17 16 16 17 17 16 17 18 18
21 22 21 20 19 19 19 20 20 19 18 18 18 18 18 18 18 18 17 18 18 17 17 17 17 17 17 17 16 17 17 17 17 16 16 15 15 16 17 16 16 17 18
21 20 19 19 19 19 19 19 18 18 18 18 18 18 17 17 17 17 17 16 16 17 16 16 16 16 16 15 15 15 15 14 14 14 15 16 15 16 15 15 16 17 19
20 19 18 18 18 18 18 18 18 17 17 17 17 17 17 17 17 15 16 16 16 15 15 15 15 14 13 13 13 13 13 13 13 14 14 14 15 15 17 16 16 16 16
19 18 18 17 17 17 17 17 16 16 16 16 16 16 16 17 14 14 14 15 15 15 15 15 14 15 15 13 13 12 12 13 13 13 13 13 14 14 13 14 14 15 17
18 17 17 16 16 16 16 16 16 16 16 16 15 15 15 14 13 14 14 14 13 14 14 14 14 15 13 13 12 12 13 13 12 12 13 13 13 13 13 14 15 15 16
17 16 16 16 16 15 15 15 15 15 15 15 15 14 14 13 13 13 13 12 12 12 13 13 13 12 12 11 11 12 12 12 12 12 12 13 14 14 14 14 15 15 16
16 15 15 15 15 15 15 15 14 15 15 14 13 13 12 12 11 10 10 12 12 11 12 12 11 11 11 11 11 11 11 12 12 12 13 13 14 14 14 13 14 16 17
15 14 14 14 14 14 14 14 14 14 14 14 13 12 11 11 11 10 9 10 10 10 11 11 10 10 10 11 11 10 10 12 12 13 12 13 13 13 15 15 15 14 14
14 13 14 14 14 13 14 13 14 14 14 13 13 12 11 10 10 9 10 8 9 9 9 9 10 9 9 10 10 9 10 10 11 11 13 14 15 15 15 14 12 11 11
13 13 13 13 13 13 13 13 13 13 13 13 13 13 13 10 9 8 9 8 9 8 9 9 9 9 8 8 8 8 10 11 10 11 12 13 13 12 13 13 12 10 10
13 13 13 13 12 12 12 12 12 12 12 13 13 12 11 10 10 8 7 8 9 9 9 8 8 8 7 8 7 8 10 8 8 9 10 10 10 9 10 13 11 9 10
13 13 12 13 12 12 12 12 12 11 11 12 11 10 10 10 9 6 7 7 7 8 8 7 6 6 6 5 6 7 7 6 7 8 8 6 9 8 8 8 9 9 11
13 13 13 13 12 12 11 10 11 8 8 8 8 8 8 8 6 6 7 7 7 7 7 7 5 4 4 4 5 5 6 7 8 8 8 8 9 7 7 8 8 9 11
13 13 13 13 13 12 12 11 9 8 8 7 7 6 7 6 6 7 7 7 7 7 5 4 4 3 3 3 5 5 6 8 7 7 8 8 8 7 7 7 8 10 11
13 12 12 13 12 12 12 11 11 9 8 7 7 7 6 6 6 6 7 6 6 5 4 4 3 3 2 4 5 5 7 7 6 7 7 8 7 7 7 7 8 9 10
12 12 13 13 12 12 11 11 11 11 11 10 8 7 7 7 6 6 6 6 6 6 4 4 3 2 3 3 4 5 5 6 6 6 7 7 7 7 7 8 8 9 10
12 13 13 12 12 12 11 11 11 10 10 10 9 9 7 6 6 6 5 5 5 6 6 5 3 3 4 4 4 4 4 5 5 5 6 6 7 7 8 8 8 8 9
12 12 12 12 11 12 11 11 11 10 10 10 9 8 7 8 8 7 6 6 5 5 5 4 5 4 3 3 3 4 4 5 5 5 5 6 7 7 9 9 9 8 10
13 13 12 12 12 12 12 11 11 10 10 9 9 7 6 7 7 6 6 6 4 5 5 4 3 3 3 3 3 3 4 4 4 4 4 5 6 8 9 10 11 12 11
13 13 13 13 12 11 11 11 10 10 9 9 8 7 5 7 6 6 6 6 5 4 4 3 3 3 3 2 2 2 3 2 1 1 2 4 6 9 9 11 12 13 13
13 13 13 12 12 11 10 10 10 10 9 8 8 7 7 7 6 6 6 5 4 4 3 3 3 2 2 1 1 1 1 -0 -1 -1 0 3 7 8 10 11 12 13 13
13 13 13 12 12 11 11 10 9 8 8 8 7 6 6 6 6 5 5 5 4 4 3 3 2 2 2 1 1 1 1 2 3 0 -0 4 8 9 10 11 12 13 13
13 12 12 12 11 11 10 10 9 9 8 7 7 6 6 5 6 5 5 5 4 4 4 3 3 3 2 2 1 0 2 3 4 4 2 7 8 9 10 11 11 12 13
12 12 11 11 10 10 10 9 9 8 8 7 7 6 6 6 6 5 5 4 4 4 4 3 3 3 3 2 1 2 2 3 4 5 5 7 8 9 9 11 11 11 12
Height
805 809 812 815 818 820 821 822 823 825 826 826 824 823 822 821 821 819 818 816 815 814 811 810 808 807 804 802 799 797 794 791 782 777 777 776 773 769 765 761 758 754 749
803 806 810 814 815 817 819 820 822 822 822 822 821 820 819 819 819 817 815 812 811 810 807 806 803 801 800 798 795 793 789 786 780 770 771 770 769 764 759 755 751 747 743
802 806 809 811 814 816 818 818 820 820 820 820 818 818 818 817 816 814 811 809 808 806 804 802 799 798 796 794 792 787 783 779 775 769 764 765 762 757 750 747 745 740 737
800 804 808 811 813 816 816 817 818 819 819 819 818 818 816 815 813 810 809 808 806 804 801 798 796 794 791 788 785 782 778 775 771 767 760 755 752 748 744 740 736 733 728
801 806 809 811 813 815 816 817 818 819 819 819 818 816 814 812 810 808 807 806 803 800 796 793 792 789 786 783 780 777 775 771 766 761 755 751 746 740 734 732 730 728 724
803 807 810 812 814 816 818 819 819 818 818 817 815 813 812 811 809 807 805 803 799 794 791 789 787 783 780 778 775 773 770 765 760 757 752 746 741 738 734 729 728 724 719
806 810 812 814 816 817 818 819 818 817 816 815 813 812 811 809 807 804 800 798 794 791 788 785 782 779 776 773 769 765 761 757 755 752 746 742 738 734 730 726 722 719 715
808 810 813 815 815 816 817 817 816 815 815 813 813 812 811 808 804 800 796 794 791 788 785 782 780 776 773 768 761 756 753 751 748 745 742 738 734 729 726 723 719 713 707
809 812 814 815 815 817 818 817 816 815 814 813 812 811 808 806 801 797 793 791 789 786 783 780 776 771 766 762 758 754 749 746 742 741 737 732 727 723 720 717 712 705 695
812 814 814 815 815 815 816 816 817 815 815 813 811 810 807 803 800 797 794 792 789 784 779 775 772 769 764 757 752 749 746 743 737 732 728 726 722 716 713 712 706 699 689
813 815 814 814 815 816 816 816 816 816 814 812 811 809 807 805 802 798 796 793 789 783 778 774 771 767 763 758 753 750 745 741 735 732 728 723 718 714 711 707 699 692 679
811 813 814 816 817 817 817 817 817 816 816 813 811 809 807 804 801 798 794 792 788 783 778 774 771 767 763 758 753 748 744 738 735 731 727 722 717 713 706 698 686 677 666
811 812 815 818 820 820 821 820 819 818 817 815 812 810 808 805 801 798 795 790 786 783 780 776 771 766 761 756 752 748 742 740 735 731 728 723 717 709 701 691 677 666 655
814 815 821 822 823 823 823 822 821 820 818 817 815 812 809 805 802 798 794 788 786 783 780 776 771 767 761 758 752 748 743 740 737 733 729 722 715 706 697 689 676 659 647
814 818 821 823 823 823 824 824 824 821 821 820 817 815 811 807 804 800 795 791 788 784 780 774 770 766 761 757 753 749 746 742 738 734 729 722 714 705 696 686 674 660 648
816 820 822 823 823 824 825 825 824 823 822 820 817 814 812 809 806 801 797 793 790 786 781 777 776 772 766 762 758 753 748 744 740 735 730 723 715 708 698 684 676 664 649
818 819 822 824 823 825 825 826 826 824 821 820 817 814 813 809 807 803 798 795 792 788 785 780 778 774 770 766 762 757 751 747 742 736 730 724 717 709 700 688 678 667 650
820 821 823 822 824 827 826 826 824 823 821 821 818 817 813 810 807 804 799 795 794 790 787 785 781 776 772 769 764 760 754 748 743 737 731 725 719 712 702 692 682 672 659
820 823 823 822 824 826 825 825 823 822 820 820 820 817 813 810 808 805 801 797 795 793 790 787 784 780 776 772 767 762 757 751 745 739 733 727 721 713 704 695 686 676 666
819 819 819 822 823 824 824 824 823 821 820 821 820 818 815 811 809 806 804 801 799 796 793 790 786 783 779 774 769 764 758 753 747 741 735 729 722 715 707 698 690 682 673
817 815 816 818 820 823 823 822 821 821 821 821 821 820 817 814 811 809 807 804 802 799 796 793 789 785 781 776 772 767 761 756 750 744 738 731 724 716 709 702 694 686 679
813 814 816 815 817 820 823 821 819 819 819 821 821 821 818 817 814 812 809 807 804 802 798 795 791 788 784 779 774 769 765 759 752 746 741 734 727 719 712 706 698 690 683
809 812 814 813 815 818 821 820 818 818 819 821 821 823 820 819 817 814 811 809 806 803 800 796 793 790 786 782 778 773 768 762 754 749 743 737 731 723 716 709 701 694 688
809 811 812 812 816 818 819 819 818 817 818 821 824 822 825 822 818 816 813 811 808 805 802 799 796 793 789 785 780 775 770 762 755 749 743 741 734 728 721 713 706 699 693
810 810 811 812 815 818 817 817 817 818 817 819 821 822 822 823 821 817 815 812 810 807 804 801 798 795 791 786 781 776 770 764 756 750 746 744 738 731 724 717 711 704 699
810 809 808 811 814 816 816 817 816 817 818 820 819 823 822 822 822 818 816 813 811 808 806 803 800 796 792 787 782 776 770 764 758 753 748 746 740 735 729 722 717 710 705
Wind_Speed
19 19 20 17 15 13 12 8 10 7 7 11 11 12 13 13 12 8 8 9 10 12 13 14 16 16 18 19 19 21 24 25 20 26 25 24 26 28 27 26 24 25 26
14 14 13 10 10 8 6 6 6 8 11 11 11 11 9 6 7 8 9 11 12 14 15 16 17 16 17 17 19 21 24 26 28 26 22 24 24 28 28 27 27 25 25
9 8 7 6 4 2 4 7 10 10 8 8 7 5 5 8 10 11 12 13 15 16 15 15 16 17 18 19 21 24 25 26 26 28 26 22 23 26 28 25 24 26 26
6 6 5 3 2 1 3 4 5 6 6 6 6 7 8 10 12 12 12 14 13 13 14 15 16 17 19 22 23 23 23 23 23 25 25 25 23 27 25 25 23 23 22
10 9 7 6 6 6 7 7 7 6 5 5 6 7 8 10 10 11 12 12 12 13 15 16 17 19 21 20 19 21 22 22 21 23 20 21 23 20 27 18 22 21 22
12 12 11 11 10 9 7 6 4 4 5 6 7 9 9 9 11 11 10 11 14 16 17 18 20 21 20 22 19 21 22 24 19 20 22 20 21 22 21 21 21 20 11
15 13 11 9 8 7 5 5 6 7 7 8 9 9 9 7 14 17 20 14 16 17 18 19 22 21 22 21 22 23 21 20 23 24 24 23 22 22 22 19 20 21 22
14 11 8 6 6 6 6 6 6 7 8 9 8 9 9 9 19 23 25 16 16 18 19 20 22 22 20 26 25 25 27 24 25 20 17 19 19 21 20 23 23 25 28
12 9 7 6 6 6 7 8 8 8 9 9 8 9 11 12 21 24 25 20 20 22 22 24 24 22 26 33 28 24 28 22 16 15 24 24 23 25 24 23 22 23 21
9 7 7 7 8 9 8 8 8 9 9 10 10 11 14 15 20 24 25 20 20 22 25 25 24 23 27 31 21 17 16 20 23 30 27 22 21 25 18 19 25 28 30
8 7 9 10 9 9 8 8 9 10 11 12 13 13 13 15 16 18 22 21 20 23 19 21 20 23 22 19 17 16 12 19 21 18 20 20 20 18 18 28 34 32 31
9 10 11 10 9 8 9 9 9 9 9 10 13 15 15 17 19 19 25 26 24 19 19 20 17 18 18 16 17 17 15 17 15 15 17 18 20 21 24 39 45 41 41
10 12 11 10 9 9 9 9 8 8 10 12 14 16 17 18 17 21 23 25 22 18 15 17 18 16 15 17 19 19 17 15 15 15 17 19 21 25 29 36 45 40 38
12 12 9 7 7 8 8 8 8 9 11 12 14 15 17 17 19 24 24 25 21 18 17 17 21 23 22 21 23 21 19 16 16 16 18 26 21 25 30 34 37 42 33
12 9 6 4 4 5 6 7 8 7 9 10 11 12 16 18 21 23 20 21 20 19 20 25 29 29 28 27 28 25 18 17 17 18 20 22 24 27 29 33 34 38 29
11 8 6 5 5 5 5 5 10 9 9 11 12 14 12 14 18 21 17 13 17 21 22 23 21 22 22 23 21 22 19 19 19 20 20 21 23 25 28 34 31 30 31
10 10 7 6 6 6 6 6 6 6 10 13 14 14 14 14 17 17 15 13 17 17 20 20 18 21 22 21 20 19 21 20 20 20 21 22 24 24 26 28 29 30 32
8 9 6 6 6 4 4 4 5 7 10 11 12 13 16 15 15 18 16 14 17 16 20 18 19 22 21 20 20 20 21 21 21 22 21 22 22 23 26 26 28 29 31
8 7 6 6 4 3 3 3 5 7 9 10 11 12 16 16 15 15 17 17 16 17 19 18 17 17 17 18 19 19 20 22 23 22 22 23 23 23 25 26 27 32 33
9 8 8 6 6 4 2 0 2 5 7 9 12 14 16 15 13 14 14 15 15 16 17 17 17 17 18 18 20 20 21 22 23 23 23 23 24 23 24 26 26 26 27
8 6 8 10 7 5 4 3 1 3 5 8 9 10 14 11 11 11 12 13 13 14 16 16 17 18 19 19 19 21 21 22 23 23 24 24 25 26 25 24 25 25 24
8 6 7 7 6 5 5 4 2 0 2 6 7 9 11 8 9 9 11 12 12 13 14 15 16 18 19 20 20 20 21 23 23 22 24 24 25 26 26 25 25 25 24
9 7 5 6 5 4 4 4 3 1 2 3 5 6 6 7 8 9 10 11 12 13 14 15 16 18 18 19 19 18 20 22 22 20 23 22 24 26 25 25 25 25 25
8 5 5 6 4 3 4 4 3 4 4 3 3 4 4 5 7 9 10 11 12 13 14 15 16 18 19 19 19 19 19 25 23 21 18 19 23 25 23 23 25 25 25
8 7 6 5 5 4 5 4 5 5 4 4 4 4 3 4 6 8 9 10 12 13 14 15 17 18 20 21 22 21 23 23 23 23 15 18 20 22 22 23 24 23 24
7 7 7 7 5 6 4 5 5 5 5 5 5 2 2 3 5 6 8 10 11 12 14 15 18 19 21 21 22 23 25 24 22 20 20 19 20 22 23 23 24 23 22
Wind_Direction
229 234 241 246 254 259 248 229 246 250 276 298 304 306 307 309 304 301 306 306 299 295 294 296 295 301 302 302 302 298 295 292 289 292 298 295 295 295 294 292 291 288 287
229 229 241 241 244 245 238 254 276 294 301 305 307 316 315 308 303 303 307 302 305 304 312 309 310 312 308 308 305 300 295 293 292 294 296 298 289 294 293 289 288 286 283
224 227 214 205 215 238 286 295 299 308 322 335 347 338 328 314 312 316 317 318 316 314 311 313 312 311 308 307 303 302 300 298 295 295 297 296 288 293 294 287 283 286 284
164 153 141 116 89 30 349 4 19 22 24 15 354 332 327 323 325 329 322 315 312 311 312 312 310 308 306 308 306 303 302 299 296 291 293 294 288 290 279 280 281 283 284
115 101 93 89 81 77 68 58 43 27 4 350 342 334 333 333 332 330 322 317 313 314 317 317 314 308 305 305 302 300 299 299 297 294 298 302 304 289 283 286 292 290 290
109 100 96 90 81 70 57 38 26 11 358 350 348 345 348 351 345 347 341 321 322 324 321 320 322 319 313 307 305 304 304 297 305 313 309 301 302 309 314 307 298 297 298
102 95 87 80 71 56 45 28 15 8 6 9 8 3 4 27 350 340 339 335 330 326 325 327 330 328 324 322 315 313 312 312 313 305 296 297 299 300 301 302 299 296 296
101 95 88 78 59 43 33 28 32 25 23 20 14 12 8 357 352 349 349 343 336 332 329 329 329 325 330 338 331 324 317 316 313 308 297 300 298 295 298 300 298 292 290
101 89 74 59 54 45 32 39 34 30 21 15 14 13 12 2 3 4 360 349 341 334 332 331 331 329 330 336 325 312 309 315 333 317 310 309 302 298 291 294 296 297 293
91 85 77 67 56 48 38 36 27 23 19 14 12 9 2 1 352 359 3 350 343 339 337 337 341 351 343 338 315 305 311 321 326 326 325 321 313 320 321 312 309 302 293
90 78 60 47 42 39 38 34 25 18 11 5 355 348 349 348 348 359 356 352 342 334 329 340 349 349 352 355 5 355 343 326 329 327 322 320 319 319 323 327 315 303 292
85 67 56 48 47 41 35 25 20 10 358 349 341 338 344 347 348 349 352 358 353 342 346 350 349 347 354 7 11 4 354 347 347 340 330 329 328 326 332 337 325 308 297
91 82 74 71 63 53 41 29 14 359 349 347 350 347 348 350 353 348 350 355 358 359 357 357 353 358 7 9 13 15 6 357 349 345 334 329 325 316 327 330 325 316 311
104 96 88 79 69 52 38 25 17 17 8 1 356 348 345 351 356 351 350 1 8 7 8 6 18 20 22 14 12 10 5 351 342 332 327 328 328 331 323 324 317 323 319
107 107 109 93 71 58 49 33 28 33 23 0 357 348 351 355 351 352 356 14 14 16 16 20 14 11 6 359 1 1 355 348 345 338 334 335 333 332 327 327 323 324 328
116 125 117 101 85 75 66 66 39 47 39 32 23 15 6 355 355 359 3 13 17 22 25 24 5 358 354 347 349 348 348 347 344 339 337 336 334 333 327 326 329 331 332
140 131 126 113 89 76 69 61 54 46 40 37 31 26 15 6 5 7 9 17 15 19 20 15 0 352 347 345 345 345 345 344 341 343 340 337 337 335 333 329 332 333 335
140 149 146 114 95 95 85 68 48 32 24 18 11 17 18 14 9 13 16 32 14 18 9 0 351 350 346 344 348 347 344 346 348 345 343 341 341 337 333 333 336 336 337
177 187 165 136 139 145 117 68 41 29 23 9 356 1 1 3 2 11 25 32 14 7 358 354 350 350 350 349 349 348 349 348 348 345 344 342 341 342 340 338 341 338 339
194 193 179 185 184 190 201 310 11 25 16 1 354 353 350 350 356 4 12 13 10 3 2 1 0 357 354 352 350 351 352 353 351 349 346 343 343 345 342 341 346 338 340
196 179 190 197 201 221 237 240 242 19 10 357 356 350 348 350 359 4 8 13 8 6 4 4 1 360 358 356 354 353 353 351 350 347 344 343 345 347 348 347 350 353 353
177 167 187 192 195 217 244 235 197 189 16 0 357 347 9 16 21 23 22 22 16 11 7 3 2 2 360 357 354 352 351 348 346 344 342 343 347 348 349 353 354 357 0
159 168 168 153 168 193 222 204 174 147 69 26 7 4 19 33 34 34 29 22 18 14 12 10 6 3 0 359 356 352 348 343 339 337 336 342 346 350 351 354 358 360 0
166 172 161 146 163 186 178 160 139 134 108 42 46 58 30 39 46 36 32 27 24 20 18 16 12 8 4 2 358 357 351 353 353 342 344 345 348 352 355 357 359 2 4
179 174 167 158 173 185 155 142 135 139 119 121 111 95 72 39 40 39 31 27 23 21 17 17 13 9 7 5 2 3 3 4 6 5 0 355 358 2 3 6 4 5 8
187 180 170 172 182 179 169 166 157 153 133 129 120 115 86 47 26 30 28 24 22 19 17 13 9 9 8 6 6 13 11 9 10 20 17 6 9 12 10 13 13 14 14